| time (UTC) | temp F | wind direction | speed knots | gust knots | rain 1hr in | rain 24hr in | rain mn in | humidity % | barometer mb |
| 20260509053058 | 45 | 157 | 7.8 | 0.0 | 0.00 | 0.00 | 0.00 | 55 | 978.8 |
| 20260509051541 | 46 | 157 | 7.0 | 0.0 | 0.00 | 0.00 | 0.00 | 55 | 978.8 |
| 20260509050114 | 46 | 154 | 6.1 | 0.0 | 0.00 | 0.00 | 0.00 | 55 | 978.8 |
| 20260509044542 | 46 | 154 | 5.2 | 0.0 | 0.00 | 0.00 | 0.00 | 49 | 979.8 |
| 20260509043058 | 46 | 163 | 6.1 | 0.0 | 0.00 | 0.00 | 0.00 | 50 | 978.6 |
| 20260509041541 | 47 | 157 | 5.2 | 0.0 | 0.00 | 0.00 | 0.00 | 50 | 978.7 |
| 20260509040117 | 47 | 158 | 6.1 | 0.0 | 0.00 | 0.00 | 0.00 | 50 | 978.7 |
| 20260509034542 | 47 | 166 | 5.2 | 0.0 | 0.00 | 0.00 | 0.00 | 46 | 979.5 |
| 20260509033057 | 48 | 174 | 5.2 | 0.0 | 0.00 | 0.00 | 0.00 | 49 | 980.2 |
| 20260509031541 | 48 | 167 | 5.2 | 0.0 | 0.00 | 0.00 | 0.00 | 49 | 980.2 |
| 20260509030114 | 48 | 164 | 5.2 | 0.0 | 0.00 | 0.00 | 0.00 | 49 | 980.2 |
| 20260509024541 | 49 | 162 | 5.2 | 0.0 | 0.00 | 0.00 | 0.00 | 26 | 980.4 |
| 20260509023100 | 50 | 163 | 5.2 | 0.0 | 0.00 | 0.00 | 0.00 | 34 | 980.5 |
| 20260509021542 | 51 | 186 | 5.2 | 0.0 | 0.00 | 0.00 | 0.00 | 34 | 980.5 |
| 20260509020111 | 51 | 191 | 3.5 | 0.0 | 0.00 | 0.00 | 0.00 | 34 | 980.5 |
| 20260509014541 | 52 | 195 | 3.5 | 0.0 | 0.00 | 0.00 | 0.00 | 42 | 980.3 |
| 20260509013056 | 52 | 205 | 3.5 | 0.0 | 0.00 | 0.00 | 0.00 | 42 | 980.3 |
| 20260509011541 | 53 | 234 | 2.6 | 0.0 | 0.00 | 0.00 | 0.00 | 42 | 980.3 |
| 20260509010108 | 54 | 262 | 2.6 | 0.0 | 0.00 | 0.00 | 0.00 | 42 | 980.3 |
| 20260509004540 | 55 | 273 | 2.6 | 0.0 | 0.00 | 0.00 | 0.00 | 36 | 979.9 |
| 20260509003059 | 55 | 259 | 3.5 | 0.0 | 0.00 | 0.00 | 0.00 | 33 | 981.2 |
| 20260509001540 | 56 | 267 | 3.5 | 0.0 | 0.00 | 0.00 | 0.00 | 33 | 981.2 |
| 20260509000118 | 57 | 267 | 3.5 | 0.0 | 0.00 | 0.00 | 0.00 | 33 | 981.2 |
| 20260508234541 | 58 | 270 | 5.2 | 0.0 | 0.00 | 0.00 | 0.00 | 27 | 980.5 |
| 20260508233101 | 59 | 267 | 6.1 | 0.0 | 0.00 | 0.00 | 0.00 | 25 | 981.1 |
| 20260508231543 | 59 | 267 | 6.1 | 0.0 | 0.00 | 0.00 | 0.00 | 25 | 981.1 |
| 20260508230106 | 60 | 273 | 7.0 | 0.0 | 0.00 | 0.00 | 0.00 | 25 | 981.1 |
| 20260508224542 | 60 | 276 | 7.0 | 0.0 | 0.00 | 0.00 | 0.00 | 25 | 981.2 |
| 20260508223101 | 60 | 280 | 8.7 | 0.0 | 0.00 | 0.00 | 0.00 | 23 | 982.0 |
| 20260508221544 | 60 | 279 | 8.7 | 0.0 | 0.00 | 0.00 | 0.00 | 23 | 982.0 |
| 20260508220108 | 60 | 278 | 9.6 | 0.0 | 0.00 | 0.00 | 0.00 | 23 | 982.0 |
| 20260508214543 | 61 | 277 | 9.6 | 0.0 | 0.00 | 0.00 | 0.00 | 22 | 982.6 |
| 20260508213100 | 61 | 270 | 9.6 | 0.0 | 0.00 | 0.00 | 0.00 | 24 | 982.0 |
| 20260508211543 | 62 | 258 | 8.7 | 0.0 | 0.00 | 0.00 | 0.00 | 24 | 982.0 |
| 20260508210112 | 62 | 257 | 8.7 | 0.0 | 0.00 | 0.00 | 0.00 | 24 | 982.0 |
| 20260508204543 | 62 | 254 | 9.6 | 0.0 | 0.00 | 0.00 | 0.00 | 25 | 982.4 |
| 20260508203101 | 62 | 252 | 9.6 | 0.0 | 0.00 | 0.00 | 0.00 | 22 | 981.9 |
| 20260508201543 | 62 | 247 | 8.7 | 0.0 | 0.00 | 0.00 | 0.00 | 22 | 981.9 |
| 20260508200109 | 62 | 249 | 8.7 | 0.0 | 0.00 | 0.00 | 0.00 | 22 | 981.9 |
| 20260508194543 | 62 | 250 | 8.7 | 0.0 | 0.00 | 0.00 | 0.00 | 21 | 982.2 |
| 20260508193058 | 63 | 248 | 7.8 | 0.0 | 0.00 | 0.00 | 0.00 | 21 | 982.2 |
| 20260508191542 | 62 | 259 | 7.8 | 0.0 | 0.00 | 0.00 | 0.00 | 21 | 982.2 |
| 20260508190106 | 62 | 260 | 8.7 | 0.0 | 0.00 | 0.00 | 0.00 | 21 | 982.2 |
| 20260508184543 | 62 | 261 | 7.8 | 0.0 | 0.00 | 0.00 | 0.00 | 26 | 982.7 |
| 20260508183102 | 62 | 250 | 8.7 | 0.0 | 0.00 | 0.00 | 0.00 | 30 | 982.3 |
| 20260508181543 | 62 | 242 | 7.8 | 0.0 | 0.00 | 0.00 | 0.00 | 30 | 982.3 |
| 20260508180112 | 61 | 240 | 7.8 | 0.0 | 0.00 | 0.00 | 0.00 | 30 | 982.3 |
| 20260508174543 | 61 | 242 | 7.8 | 0.0 | 0.00 | 0.00 | 0.00 | 33 | 983.3 |
| 20260508173101 | 60 | 249 | 8.7 | 0.0 | 0.00 | 0.00 | 0.00 | 33 | 983.3 |
| 20260508171543 | 60 | 243 | 8.7 | 0.0 | 0.00 | 0.00 | 0.00 | 33 | 983.3 |
| 20260508170108 | 60 | 241 | 7.8 | 0.0 | 0.00 | 0.00 | 0.00 | 33 | 983.3 |
| 20260508164542 | 59 | 240 | 7.8 | 0.0 | 0.00 | 0.00 | 0.00 | 34 | 983.5 |
| 20260508163101 | 59 | 236 | 7.8 | 0.0 | 0.00 | 0.00 | 0.00 | 34 | 983.8 |
| 20260508161543 | 57 | 234 | 7.0 | 0.0 | 0.00 | 0.00 | 0.00 | 34 | 983.8 |
| 20260508160113 | 57 | 236 | 7.0 | 0.0 | 0.00 | 0.00 | 0.00 | 34 | 983.8 |
| 20260508154543 | 56 | 230 | 6.1 | 0.0 | 0.00 | 0.00 | 0.00 | 44 | 984.7 |
| 20260508153103 | 55 | 207 | 6.1 | 0.0 | 0.00 | 0.00 | 0.00 | 51 | 983.7 |
| 20260508151543 | 54 | 198 | 5.2 | 0.0 | 0.00 | 0.00 | 0.00 | 51 | 983.7 |
| 20260508150112 | 53 | 201 | 5.2 | 0.0 | 0.00 | 0.00 | 0.00 | 51 | 983.7 |
| 20260508144543 | 52 | 196 | 4.3 | 0.0 | 0.00 | 0.00 | 0.00 | 65 | 983.8 |
| 20260508143100 | 52 | 195 | 5.2 | 0.0 | 0.00 | 0.00 | 0.00 | 58 | 984.0 |
| 20260508141544 | 51 | 186 | 5.2 | 0.0 | 0.00 | 0.00 | 0.00 | 58 | 984.0 |
| 20260508140120 | 51 | 180 | 4.3 | 0.0 | 0.00 | 0.00 | 0.00 | 60 | 983.8 |
| 20260508134543 | 50 | 175 | 3.5 | 0.0 | 0.00 | 0.00 | 0.00 | 68 | 983.6 |
| 20260508133058 | 48 | 178 | 5.2 | 0.0 | 0.00 | 0.00 | 0.00 | 68 | 983.6 |
| 20260508131543 | 46 | 178 | 5.2 | 0.0 | 0.00 | 0.00 | 0.00 | 68 | 983.6 |
| 20260508130116 | 45 | 176 | 4.3 | 0.0 | 0.00 | 0.00 | 0.00 | 68 | 983.6 |
| 20260508124543 | 44 | 176 | 4.3 | 0.0 | 0.00 | 0.00 | 0.00 | 83 | 983.0 |
| 20260508123102 | 43 | 182 | 4.3 | 0.0 | 0.00 | 0.00 | 0.00 | 83 | 983.6 |
| 20260508121543 | 41 | 177 | 3.5 | 0.0 | 0.00 | 0.00 | 0.00 | 83 | 983.6 |
| 20260508120124 | 40 | 163 | 2.6 | 0.0 | 0.00 | 0.00 | 0.00 | 83 | 983.6 |
| 20260508114543 | 38 | 159 | 2.6 | 0.0 | 0.00 | 0.00 | 0.00 | 84 | 983.1 |
| 20260508113105 | 37 | 156 | 2.6 | 0.0 | 0.00 | 0.00 | 0.00 | 83 | 983.7 |
| 20260508111542 | 37 | 139 | 3.5 | 0.0 | 0.00 | 0.00 | 0.00 | 83 | 983.7 |
| 20260508110109 | 36 | 146 | 4.3 | 0.0 | 0.00 | 0.00 | 0.00 | 83 | 983.7 |
| 20260508104545 | 36 | 144 | 4.3 | 0.0 | 0.00 | 0.00 | 0.00 | 81 | 982.7 |
| 20260508103102 | 36 | 135 | 4.3 | 0.0 | 0.00 | 0.00 | 0.00 | 80 | 983.8 |
| 20260508101546 | 37 | 139 | 3.5 | 0.0 | 0.00 | 0.00 | 0.00 | 80 | 983.9 |
| 20260508100109 | 37 | 133 | 2.6 | 0.0 | 0.00 | 0.00 | 0.00 | 80 | 983.9 |
| 20260508094544 | 37 | 128 | 2.6 | 0.0 | 0.00 | 0.00 | 0.00 | 79 | 983.1 |
| 20260508093058 | 37 | 128 | 2.6 | 0.0 | 0.00 | 0.00 | 0.00 | 82 | 983.8 |
| 20260508091545 | 38 | 128 | 2.6 | 0.0 | 0.00 | 0.00 | 0.00 | 82 | 983.8 |
| 20260508090113 | 38 | 130 | 2.6 | 0.0 | 0.00 | 0.00 | 0.00 | 82 | 983.8 |
| 20260508084545 | 38 | 120 | 2.6 | 0.0 | 0.00 | 0.00 | 0.00 | 84 | 983.3 |
| 20260508083103 | 38 | 151 | 3.5 | 0.0 | 0.00 | 0.00 | 0.00 | 81 | 983.1 |
| 20260508081544 | 38 | 171 | 3.5 | 0.0 | 0.00 | 0.00 | 0.00 | 81 | 983.2 |
| 20260508080115 | 38 | 166 | 3.5 | 0.0 | 0.00 | 0.00 | 0.00 | 81 | 983.2 |
| 20260508074545 | 39 | 161 | 3.5 | 0.0 | 0.00 | 0.00 | 0.00 | 82 | 984.0 |
| 20260508073103 | 39 | 164 | 3.5 | 0.0 | 0.00 | 0.00 | 0.00 | 82 | 984.0 |
| 20260508071544 | 39 | 180 | 2.6 | 0.0 | 0.00 | 0.00 | 0.00 | 82 | 984.0 |
| 20260508070115 | 39 | 180 | 3.5 | 0.0 | 0.00 | 0.00 | 0.00 | 82 | 984.0 |
| 20260508064543 | 40 | 180 | 3.5 | 0.0 | 0.00 | 0.00 | 0.00 | 78 | 983.7 |
| 20260508063100 | 40 | 175 | 3.5 | 0.0 | 0.00 | 0.00 | 0.00 | 79 | 984.0 |
| 20260508061543 | 41 | 173 | 2.6 | 0.0 | 0.00 | 0.00 | 0.00 | 79 | 984.1 |
| 20260508060127 | 41 | 180 | 1.7 | 0.0 | 0.00 | 0.00 | 0.00 | 79 | 984.1 |
| 20260508054543 | 41 | 180 | 1.7 | 0.0 | 0.00 | 0.00 | 0.00 | 75 | 984.7 |